Vorticity
12 19 16 16 17 15 16 16 31 11 5 11 13 19 25 23 21 21 21 19 4 11 9 25 16 8 16
18 18 18 21 19 20 15 10 5 9 15 22 22 22 20 20 16 13 9 5 10 14 18 18 15 19 33
18 21 18 15 9 8 6 14 18 23 22 23 18 16 16 16 16 15 15 13 8 5 10 7 3 6 12
15 9 6 9 8 10 16 21 16 16 19 18 19 15 12 14 13 14 15 15 20 24 13 13 12 15 6
5 9 13 15 17 16 10 13 23 14 15 12 18 15 16 19 21 19 20 20 22 20 28 20 16 17 20
12 16 15 14 11 11 19 6 7 11 13 10 14 16 15 16 18 18 17 17 20 23 22 18 15 11 6
16 16 10 11 17 11 6 11 9 10 11 12 15 13 12 11 12 13 14 15 15 17 16 13 13 15 15
13 13 17 13 7 9 8 8 8 10 12 14 11 11 15 16 19 21 13 8 7 11 10 10 10 11 12
22 13 9 11 9 8 10 5 8 10 15 10 11 14 19 30 27 26 17 10 10 9 8 9 9 14 16
9 12 9 12 11 8 9 9 9 8 12 10 13 14 23 30 28 26 25 21 18 18 17 21 24 25 20
10 9 9 11 13 16 16 12 7 11 16 11 15 23 26 19 12 18 17 19 21 20 20 16 12 11 11
9 6 11 18 19 14 13 11 10 12 13 14 20 20 8 14 17 19 21 18 19 16 24 24 18 18 17
7 11 20 15 11 13 15 9 12 16 15 20 18 10 13 7 4 6 11 20 16 13 15 24 27 21 27
12 20 12 9 13 15 10 12 12 22 18 13 7 9 5 4 5 6 7 7 14 12 17 28 20 25 14
19 13 8 9 12 12 9 10 11 17 23 10 10 7 5 4 3 -0 4 7 18 8 23 34 24 29 27
14 7 8 9 8 13 8 7 10 16 20 10 10 9 4 -4 -0 4 5 6 12 14 28 47 21 25 38
7 7 9 9 11 13 11 10 12 18 17 10 8 6 5 -4 0 6 9 5 16 22 27 38 14 25 -6
Height
2907 2900 2888 2877 2869 2860 2854 2847 2842 2840 2836 2831 2825 2820 2818 2816 2812 2810 2808 2808 2806 2806 2807 2808 2811 2812 2815
2893 2882 2872 2864 2857 2850 2844 2836 2829 2825 2820 2813 2808 2804 2800 2798 2795 2793 2791 2790 2789 2789 2790 2792 2792 2793 2795
2872 2867 2859 2851 2843 2837 2830 2823 2816 2811 2804 2801 2796 2791 2788 2784 2781 2777 2775 2773 2771 2772 2773 2773 2774 2777 2780
2861 2853 2846 2841 2833 2824 2816 2813 2806 2801 2796 2791 2784 2781 2776 2771 2766 2762 2758 2754 2753 2754 2754 2755 2757 2760 2763
2853 2845 2839 2832 2824 2817 2808 2802 2798 2792 2785 2780 2775 2769 2765 2760 2754 2749 2745 2741 2738 2736 2737 2739 2741 2744 2746
2844 2837 2830 2823 2817 2809 2801 2794 2786 2785 2774 2769 2765 2759 2754 2748 2743 2737 2732 2728 2726 2724 2723 2725 2727 2729 2731
2836 2831 2822 2816 2809 2801 2795 2788 2780 2775 2766 2758 2757 2750 2746 2740 2735 2729 2723 2718 2715 2713 2712 2712 2713 2715 2717
2833 2825 2817 2810 2803 2795 2787 2779 2775 2770 2761 2748 2747 2739 2734 2730 2725 2718 2713 2707 2704 2703 2703 2703 2702 2701 2703
2827 2820 2813 2806 2798 2789 2783 2774 2767 2763 2758 2742 2738 2728 2723 2718 2712 2706 2701 2698 2697 2695 2693 2691 2690 2690 2688
2821 2816 2809 2803 2796 2788 2779 2770 2762 2754 2752 2737 2731 2721 2709 2707 2702 2697 2695 2695 2690 2686 2683 2680 2678 2674 2672
2815 2809 2804 2798 2791 2783 2776 2768 2760 2752 2745 2734 2727 2721 2713 2704 2702 2697 2692 2689 2685 2681 2676 2671 2668 2665 2662
2810 2805 2798 2791 2785 2779 2773 2767 2760 2749 2742 2735 2726 2720 2714 2708 2700 2697 2692 2686 2680 2674 2668 2662 2658 2654 2650
2806 2799 2793 2786 2780 2774 2770 2763 2757 2748 2740 2734 2728 2722 2716 2709 2702 2696 2687 2682 2675 2667 2660 2653 2648 2644 2640
2800 2795 2789 2784 2778 2771 2765 2758 2752 2748 2740 2733 2729 2723 2717 2712 2706 2699 2690 2678 2672 2662 2654 2646 2641 2636 2631
2797 2791 2787 2781 2776 2768 2762 2756 2750 2743 2739 2735 2729 2723 2719 2714 2707 2699 2690 2681 2671 2660 2650 2642 2636 2631 2626
2794 2789 2784 2778 2772 2767 2761 2755 2748 2743 2738 2733 2729 2725 2721 2716 2706 2698 2690 2682 2672 2660 2648 2641 2637 2632 2628
2792 2787 2781 2776 2770 2764 2759 2754 2749 2743 2738 2733 2728 2724 2720 2713 2709 2701 2692 2683 2674 2663 2651 2645 2641 2637 2632